Location: ??
(35.5052°N, 139.7262°E)
Time: 17:49:31
(UTC+00:00)

Spot 4 Rocket - Pass Details

Date: 20 June 2021
Orbit: 776 x 781 km, 98.7° (Epoch: 29 July)

Event Time Altitude Azimuth Distance (km) Brightness Sun altitude
Rises 18:38:32 0° 7° (N) 3,262 8.0 -8.9°
Reaches altitude 10° 18:40:54 10° 2° (N) 2,331 7.1 -8.5°
Maximum altitude 18:45:51 51° 288° (WNW) 968 4.3 -7.7°
Drops below altitude 10° 18:50:48 10° 213° (SSW) 2,319 5.9 -6.9°
Enters shadow 18:51:53 - 210° (SSW) 2,743 6.3 -6.7°
